Renton, WA

5:36 AM PDT on May 28, 2017 (GMT -0700)
Renton Municipal

Weather History for KRNT - December, 2014

Change the Weather History Date:

Monday, December 29, 2014

  Actual Average Record
Temperature  
Mean Temperature 38 °F -  
Max Temperature 44 °F 44 °F 57 °F (1997)
Min Temperature 30 °F 35 °F 27 °F (2003)
Degree Days  
Heating Degree Days 27    
Moisture  
Dew Point 31 °F    
Average Humidity 77    
Maximum Humidity 97    
Minimum Humidity 55    
Precipitation  
Precipitation 0.00 in - - ()
Sea Level Pressure  
Sea Level Pressure 30.42 in    
Wind  
Wind Speed 4 mph (North)    
Max Wind Speed 9 mph    
Max Gust Speed -    
Visibility 10 miles    
Events      
Averages and records for this station are not official NWS values.
T = Trace of Precipitation, MM = Missing Value Source: NWS Daily Summary

Daily Weather History Graph

Daily Weather History Graph

Search for Another Location

Airport or City:

Trip Planner

Search our weather history database for the weather conditions in past years. The results will help you decide how hot, cold, wet, or windy it might be!

Date:

Astronomy

Dec. 29, 2014 Rise Set
Actual Time 7:56 AM PST 4:25 PM PST
Civil Twilight 7:20 AM PST 5:01 PM PST
Nautical Twilight 6:41 AM PST 5:40 PM PST
Astronomical Twilight 6:04 AM PST 6:18 PM PST
Moon 12:23 PM PST (12/29) 12:59 AM PST (12/29)
Length of Visible Light 9h 40m
Length of Day
8h 29m
First Quarter, 62% of the Moon is Illuminated
Dec 29
First Quarter
Jan 4
Full
Jan 13
Last Quarter
Jan 20
New
Jan 26
First Quarter

Hourly Weather History & Observations

Time (PST) Temp. Windchill Dew Point Humidity Pressure Visibility Wind Dir Wind Speed Gust Speed Precip Events Conditions
12:08 AM 37.9 °F 35.5 °F 37.0 °F 97% 30.17 in 10.0 mi NNW 3.5 mph - N/A   Mostly Cloudy
12:17 AM 39.0 °F 35.7 °F 37.9 °F 96% 30.17 in 10.0 mi Variable 4.6 mph - N/A   Overcast
12:46 AM 39.0 °F 36.8 °F 37.0 °F 93% 30.17 in 10.0 mi North 3.5 mph - N/A   Overcast
12:53 AM 37.9 °F - 37.0 °F 97% 30.19 in 10.0 mi Calm Calm - N/A   Overcast
1:53 AM 39.0 °F 36.8 °F 37.9 °F 96% 30.21 in 10.0 mi North 3.5 mph - N/A   Overcast
2:53 AM 39.0 °F 33.4 °F 37.0 °F 93% 30.23 in 10.0 mi North 8.1 mph - N/A   Overcast
3:12 AM 39.0 °F 35.7 °F 37.0 °F 93% 30.23 in 10.0 mi North 4.6 mph - N/A   Overcast
3:53 AM 39.0 °F 34.8 °F 37.0 °F 93% 30.25 in 10.0 mi North 5.8 mph - N/A   Mostly Cloudy
4:53 AM 39.0 °F 34.0 °F 36.0 °F 89% 30.27 in 10.0 mi North 6.9 mph - N/A   Overcast
5:42 AM 39.0 °F 34.0 °F 36.0 °F 89% 30.28 in 10.0 mi North 6.9 mph - N/A   Mostly Cloudy
5:53 AM 37.9 °F 32.7 °F 36.0 °F 93% 30.30 in 10.0 mi North 6.9 mph - N/A   Mostly Cloudy
6:08 AM 37.9 °F 33.5 °F 35.1 °F 89% 30.29 in 10.0 mi NNE 5.8 mph - N/A   Scattered Clouds
6:53 AM 37.9 °F 33.5 °F 34.0 °F 86% 30.33 in 10.0 mi North 5.8 mph - N/A   Clear
7:53 AM 37.9 °F 33.5 °F 33.1 °F 83% 30.36 in 10.0 mi North 5.8 mph - N/A   Clear
8:53 AM 37.9 °F 33.5 °F 30.9 °F 76% 30.41 in 10.0 mi North 5.8 mph - N/A   Clear
9:53 AM 39.0 °F 33.4 °F 30.0 °F 70% 30.45 in 10.0 mi NNW 8.1 mph - N/A   Clear
10:53 AM 41.0 °F 38.0 °F 30.0 °F 65% 30.47 in 10.0 mi Variable 4.6 mph - N/A   Clear
11:53 AM 42.1 °F 38.4 °F 32.0 °F 67% 30.47 in 10.0 mi Variable 5.8 mph - N/A   Clear
12:53 PM 43.0 °F 37.7 °F 32.0 °F 65% 30.48 in 10.0 mi NNW 9.2 mph - N/A   Clear
1:53 PM 44.1 °F 39.0 °F 28.9 °F 55% 30.48 in 10.0 mi NNW 9.2 mph - N/A   Clear
2:53 PM 42.1 °F 40.2 °F 28.0 °F 58% 30.50 in 10.0 mi Variable 3.5 mph - N/A   Partly Cloudy
3:53 PM 41.0 °F - 27.0 °F 57% 30.53 in 10.0 mi Calm Calm - N/A   Partly Cloudy
4:53 PM 41.0 °F 38.0 °F 27.0 °F 57% 30.56 in 10.0 mi Variable 4.6 mph - N/A   Overcast
5:53 PM 39.9 °F 35.1 °F 25.0 °F 55% 30.59 in 10.0 mi North 6.9 mph - N/A   Overcast
6:53 PM 39.0 °F - 25.0 °F 57% 30.62 in 10.0 mi Calm Calm - N/A   Overcast
7:53 PM 37.9 °F - 24.1 °F 57% 30.65 in 10.0 mi Calm Calm - N/A   Mostly Cloudy
8:53 PM 34.0 °F - 25.0 °F 70% 30.67 in 10.0 mi Calm Calm - N/A   Mostly Cloudy
9:53 PM 35.1 °F - 23.0 °F 61% 30.71 in 10.0 mi Calm Calm - N/A   Scattered Clouds
10:53 PM 32.0 °F - 25.0 °F 75% 30.73 in 10.0 mi Calm Calm - N/A   Clear
11:53 PM 30.9 °F - 23.0 °F 72% 30.75 in 10.0 mi Calm Calm - N/A   Clear